Leesburg, VA

2:36 AM EST on December 06, 2019 (GMT -0500)
Leesburg Executive

Weather History for KJYO - April, 2019

Change the Weather History Date:

Wednesday, April 3, 2019

  Actual Average (KIAD) Record (KIAD)
Temperature  
Mean Temperature 50 °F -  
Max Temperature 69 °F 63 °F 86 °F (1981)
Min Temperature 30 °F 37 °F 23 °F (1991)
Degree Days  
Heating Degree Days 16    
Moisture  
Dew Point 32 °F    
Average Humidity 57    
Maximum Humidity 100    
Minimum Humidity 23    
Precipitation  
Precipitation 0.00 in - - ()
Sea Level Pressure  
Sea Level Pressure 30.16 in    
Wind  
Wind Speed 7 mph (WNW)    
Max Wind Speed 28 mph    
Max Gust Speed 39 mph    
Visibility 10 miles    
Events      
Averages and records for this station are not official NWS values.
T = Trace of Precipitation, MM = Missing Value Source: NWS Daily Summary

Daily Weather History Graph

Daily Weather History Graph

Search for Another Location

Airport or City:

Astronomy

Apr. 03, 2019 Rise Set
Actual Time 6:52 AM EDT 7:35 PM EDT
Civil Twilight 6:25 AM EDT 8:02 PM EDT
Nautical Twilight 5:53 AM EDT 8:34 PM EDT
Astronomical Twilight 5:20 AM EDT 9:07 PM EDT
Moon 6:24 AM EDT (4/3) 6:03 PM EDT (4/3)
Length of Visible Light 13h 37m
Length of Day
12h 43m
Waning Crescent, 3% of the Moon is Illuminated
Apr 3
Waning Crescent
Apr 5
New
Apr 12
First Quarter
Apr 19
Full
Apr 26
Last Quarter

Hourly Weather History & Observations

Time (EDT) Temp. Windchill Dew Point Humidity Pressure Visibility Wind Dir Wind Speed Gust Speed Precip Events Conditions
12:15 AM 39.2 °F 37.0 °F 35.6 °F 87% 30.10 in 10.0 mi West 3.5 mph - N/A   Clear
12:35 AM 37.4 °F 33.8 °F 33.8 °F 87% 30.10 in 10.0 mi WNW 4.6 mph - N/A   Clear
12:55 AM 37.4 °F 33.8 °F 33.8 °F 87% 30.10 in 10.0 mi WNW 4.6 mph - N/A   Clear
1:15 AM 37.4 °F 34.9 °F 33.8 °F 87% 30.10 in 10.0 mi WNW 3.5 mph - N/A   Clear
1:35 AM 35.6 °F 32.8 °F 33.8 °F 93% 30.10 in 10.0 mi NW 3.5 mph - N/A   Clear
1:55 AM 35.6 °F - 33.8 °F 93% 30.10 in 10.0 mi Calm Calm - N/A   Clear
2:15 AM 33.8 °F 29.6 °F 32.0 °F 93% 30.10 in 10.0 mi WNW 4.6 mph - N/A   Clear
2:35 AM 35.6 °F 31.7 °F 33.8 °F 93% 30.10 in 10.0 mi WNW 4.6 mph - N/A   Clear
2:55 AM 35.6 °F 30.7 °F 32.0 °F 87% 30.10 in 10.0 mi WNW 5.8 mph - N/A   Clear
3:15 AM 33.8 °F 30.8 °F 32.0 °F 93% 30.10 in 10.0 mi West 3.5 mph - N/A   Clear
3:35 AM 33.8 °F 30.8 °F 32.0 °F 93% 30.10 in 10.0 mi WNW 3.5 mph - N/A   Clear
3:55 AM 32.0 °F 27.5 °F 32.0 °F 100% 30.10 in 10.0 mi WNW 4.6 mph - N/A   Clear
4:15 AM 32.0 °F - 32.0 °F 100% 30.10 in 10.0 mi Calm Calm - N/A   Clear
4:35 AM 32.0 °F - 32.0 °F 100% 30.11 in 10.0 mi Calm Calm - N/A   Clear
4:55 AM 33.8 °F - 32.0 °F 93% 30.11 in 10.0 mi Calm Calm - N/A   Clear
5:15 AM 32.0 °F - 32.0 °F 100% 30.12 in 10.0 mi Calm Calm - N/A   Clear
5:35 AM 32.0 °F - 32.0 °F 100% 30.12 in 10.0 mi Calm Calm - N/A   Clear
5:55 AM 32.0 °F 26.4 °F 32.0 °F 100% 30.13 in 10.0 mi South 5.8 mph - N/A   Clear
6:15 AM 32.0 °F 26.4 °F 30.2 °F 93% 30.13 in 10.0 mi SW 5.8 mph - N/A   Clear
6:35 AM 30.2 °F 26.7 °F 30.2 °F 100% 30.14 in 10.0 mi West 3.5 mph - N/A   Clear
6:55 AM 32.0 °F - 32.0 °F 100% 30.14 in 10.0 mi Calm Calm - N/A   Clear
7:15 AM 32.0 °F - 30.2 °F 93% 30.15 in 10.0 mi Calm Calm - N/A   Clear
7:35 AM 32.0 °F - 32.0 °F 100% 30.16 in 10.0 mi Calm Calm - N/A   Clear
7:55 AM 33.8 °F - 32.0 °F 93% 30.17 in 10.0 mi Calm Calm - N/A   Clear
8:15 AM 35.6 °F - 32.0 °F 87% 30.18 in 10.0 mi Calm Calm - N/A   Clear
8:35 AM 37.4 °F - 33.8 °F 87% 30.18 in 10.0 mi Calm Calm - N/A   Clear
8:55 AM 41.0 °F 39.0 °F 33.8 °F 76% 30.18 in 10.0 mi SSW 3.5 mph - N/A   Clear
9:15 AM 44.6 °F - 35.6 °F 71% 30.18 in 10.0 mi Calm Calm - N/A   Clear
9:35 AM 48.2 °F - 33.8 °F 58% 30.18 in 10.0 mi SW 5.8 mph - N/A   Clear
9:55 AM 51.8 °F - 33.8 °F 50% 30.18 in 10.0 mi SW 6.9 mph - N/A   Clear
10:15 AM 55.4 °F - 33.8 °F 44% 30.18 in 10.0 mi SW 6.9 mph - N/A   Clear
10:35 AM 57.2 °F - 35.6 °F 44% 30.18 in 10.0 mi SW 6.9 mph - N/A   Clear
10:55 AM 59.0 °F - 35.6 °F 42% 30.17 in 10.0 mi WSW 15.0 mph 19.6 mph N/A   Clear
11:15 AM 60.8 °F - 33.8 °F 36% 30.17 in 10.0 mi WNW 16.1 mph 27.6 mph N/A   Clear
11:35 AM 62.6 °F - 33.8 °F 34% 30.17 in 10.0 mi West 17.3 mph 32.2 mph N/A   Clear
11:55 AM 62.6 °F - 35.6 °F 37% 30.16 in 10.0 mi West 12.7 mph 25.3 mph N/A   Clear
12:15 PM 64.4 °F - 35.6 °F 34% 30.16 in 10.0 mi WNW 15.0 mph 25.3 mph N/A   Clear
12:35 PM 64.4 °F - 35.6 °F 34% 30.15 in 10.0 mi West 23.0 mph 32.2 mph N/A   Clear
12:55 PM 66.2 °F - 35.6 °F 32% 30.15 in 10.0 mi WNW 19.6 mph 26.5 mph N/A   Clear
1:15 PM 68.0 °F - 33.8 °F 28% 30.15 in 10.0 mi WNW 17.3 mph 29.9 mph N/A   Clear
1:35 PM 68.0 °F - 33.8 °F 28% 30.14 in 10.0 mi NW 25.3 mph 35.7 mph N/A   Clear
1:55 PM 68.0 °F - 32.0 °F 26% 30.15 in 10.0 mi WNW 27.6 mph 39.1 mph N/A   Clear
2:15 PM 68.0 °F - 32.0 °F 26% 30.15 in 10.0 mi WNW 25.3 mph 35.7 mph N/A   Clear
2:35 PM 68.0 °F - 32.0 °F 26% 30.14 in 10.0 mi NW 20.7 mph 31.1 mph N/A   Clear
2:55 PM 68.0 °F - 30.2 °F 24% 30.13 in 10.0 mi NW 18.4 mph 35.7 mph N/A   Clear
3:15 PM 69.8 °F - 32.0 °F 25% 30.13 in 10.0 mi WNW 13.8 mph 26.5 mph N/A   Clear
3:35 PM 69.8 °F - 30.2 °F 23% 30.13 in 10.0 mi NW 20.7 mph 29.9 mph N/A   Clear
3:55 PM 69.8 °F - 30.2 °F 23% 30.13 in 10.0 mi WNW 24.2 mph 33.4 mph N/A   Clear
4:15 PM 69.8 °F - 30.2 °F 23% 30.13 in 10.0 mi WNW 24.2 mph 31.1 mph N/A   Clear
4:35 PM 69.8 °F - 30.2 °F 23% 30.13 in 10.0 mi NNW 19.6 mph 34.5 mph N/A   Clear
4:55 PM 68.0 °F - 30.2 °F 24% 30.14 in 10.0 mi NW 27.6 mph 33.4 mph N/A   Clear
5:15 PM 68.0 °F - 30.2 °F 24% 30.14 in 10.0 mi NNW 23.0 mph 27.6 mph N/A   Clear
5:35 PM 68.0 °F - 30.2 °F 24% 30.15 in 10.0 mi WNW 16.1 mph 29.9 mph N/A   Clear
5:55 PM 68.0 °F - 30.2 °F 24% 30.16 in 10.0 mi WNW 18.4 mph 24.2 mph N/A   Clear
6:15 PM 66.2 °F - 30.2 °F 26% 30.17 in 10.0 mi NW 13.8 mph 28.8 mph N/A   Clear
6:35 PM 64.4 °F - 30.2 °F 28% 30.18 in 10.0 mi NNW 12.7 mph - N/A   Clear
6:55 PM 64.4 °F - 30.2 °F 28% 30.18 in 10.0 mi NW 16.1 mph 20.7 mph N/A   Clear
7:15 PM 62.6 °F - 30.2 °F 30% 30.19 in 10.0 mi NW 13.8 mph 24.2 mph N/A   Clear
7:35 PM 62.6 °F - 30.2 °F 30% 30.20 in 10.0 mi NNW 10.4 mph - N/A   Clear
7:55 PM 60.8 °F - 30.2 °F 31% 30.21 in 10.0 mi NNW 6.9 mph - N/A   Clear
8:15 PM 59.0 °F - 30.2 °F 34% 30.22 in 10.0 mi NW 5.8 mph - N/A   Clear
8:35 PM 59.0 °F - 28.4 °F 31% 30.23 in 10.0 mi NNW 5.8 mph - N/A   Clear
8:55 PM 55.4 °F - 30.2 °F 38% 30.23 in 10.0 mi NW 6.9 mph - N/A   Clear
9:15 PM 53.6 °F - 30.2 °F 41% 30.25 in 10.0 mi NW 8.1 mph - N/A   Clear
9:35 PM 57.2 °F - 30.2 °F 36% 30.26 in 10.0 mi NNW 6.9 mph - N/A   Clear
9:55 PM 57.2 °F - 28.4 °F 33% 30.26 in 10.0 mi NNW 5.8 mph - N/A   Clear
10:15 PM 55.4 °F - 28.4 °F 36% 30.28 in 10.0 mi NNW 5.8 mph - N/A   Clear
10:55 PM 50.0 °F - 30.2 °F 47% 30.28 in 10.0 mi NW 5.8 mph - N/A   Clear
11:15 PM 44.6 °F 41.4 °F 32.0 °F 61% 30.29 in 10.0 mi West 5.8 mph - N/A   Clear
11:35 PM 46.4 °F 41.9 °F 32.0 °F 57% 30.29 in 10.0 mi WNW 9.2 mph - N/A   Clear
11:55 PM 51.8 °F - 30.2 °F 44% 30.30 in 10.0 mi WNW 6.9 mph - N/A   Clear